Showing default

ESSA 7 (TOS-E), 3345

Orbit data source: Space-Track

ESSA 7 (TOS-E), 3345 is a payload satellite owned by ESSA (US) in SSO that was launched on Fri, 16 Aug 1968 UTC via a THOR DELTA N launch vehicle from the Air Force Western Test Range (AFWTR). Payload-class satellites include a variety of spacecraft equipped with specific instruments for various scientific and technological missions. These include communications satellites like Starlink; space stations such as the ISS; scientific satellites like the Hubble; Earth observation satellites from companies like Planet Labs, Umbra, and HawkEye 360; GPS; miniature CubeSats for education and research; and military/defense satellites.

Loading next visibility...
Identifier
3345, 1968-069A
Orbit
SSO
Country
Flag of USUS
Related business
Manufacturer
RCA/East Windsor
Mission
Non-operational spacecraft
Bus & Motor
TIROS I, Unknown motor
Mass
154 kg wet, 154 kg dry
Launch date (UTC)
1968-08-16 (57 years ago)
Launch vehicle
THOR DELTA N
Launch site
Air Force Western Test Range (AFWTR)
Object type
Payload
Rocket body
Debris
Shape & HBR
Unknown
Radar Cross Section
Medium (>0.1 m² and <1 m²)

Expand to show TLE details & history
Last TLE update: 15 hours ago

TLE from 15 hours ago
0 ESSA 7 (TOS-E)
1 03345U 68069A   25340.85211928 -.00000055  00000-0 -72128-4 0  9990
2 03345 101.5322 307.4920 0026613 182.4943 231.8909 12.53007185620894
Epoch: 2025-12-06T20:27Z
TLE epoch observation values (Epoch: 2025-12-06T20:27:03.105Z)
Latitude
52.66909°
Longitude
-90.58467°
Altitude
1,473.205 km
Speed
7.126 km/s
True Right ascension
19h 28m 12s
True Declination
52° 31' 06"
Sunlit
Object was in daylight at epoch
Visualization orbit readout
Latitude
Unknown
Longitude
Unknown
Altitude
Unknown
Speed
Unknown
Apparent Right ascension
Unknown
Apparent Declination
Unknown
Sunlit
N/A
Visualization observer readout
Local Sidereal Time
09:32:11
Azimuth
Unknown
Elevation
Unknown
Doppler factor
Unknown
Orbital elements
Apogee altitude
1,470.304 km
Perigee altitude
1,428.64 km
Semi-major axis
7,827.609 km
Eccentricity
0.00266
Inclination
101.5322°
RAAN
307.492°
Arg. of periapsis
182.4943°
True anomaly
231.65144°
Mean anomaly
231.8909°
Eccentric anomaly
231.77112°
Mean motion
3.134 °/min
Orbital period
114.87 mins
BSTAR
-0.000072128
Loading maneuver chart data...
Computing Atmospheric mass density...
Loading historical data...
Loading historical data...
Loading historical data...
Loading historical data...
Loading historical data...
Loading historical data...
Loading historical data...

Documentation

Showing up to 5 results
|